Weather History for KCAE - May, 2013

Change the Weather History Date:

Wednesday, May 8, 2013

  Actual Average Record
Temperature  
Mean Temperature 67 °F 69 °F  
Max Temperature 82 °F 82 °F 96 °F (1916)
Min Temperature 52 °F 57 °F 35 °F (1989)
Degree Days  
Heating Degree Days 0 1  
Month to date heating degree days 11 10  
Since 1 July heating degree days 2252 2541  
Cooling Degree Days 2 5  
Month to date cooling degree days 6 37  
Year to date cooling degree days 134 132  
Growing Degree Days 17 (Base 50)    
Moisture  
Dew Point 52 °F    
Average Humidity 62    
Maximum Humidity 89    
Minimum Humidity 35    
Precipitation  
Precipitation 0.00 in 0.09 in 1.32 in (1978)
Month to date precipitation 2.31 0.74  
Year to date precipitation 17.31 14.28  
Sea Level Pressure  
Sea Level Pressure 29.97 in    
Wind  
Wind Speed 5 mph (WSW)    
Max Wind Speed 18 mph    
Max Gust Speed 23 mph    
Visibility 10 miles    
Events      
T = Trace of Precipitation, MM = Missing Value Source: NWS Daily Summary

Daily Weather History Graph

Daily Weather History Graph

Search for Another Location

Airport or City:

Trip Planner

Search our weather history database for the weather conditions in past years. The results will help you decide how hot, cold, wet, or windy it might be!

Date:

Astronomy

May. 08, 2013 Rise Set
Actual Time 6:28 AM EDT 8:13 PM EDT
Civil Twilight 6:01 AM EDT 8:40 PM EDT
Nautical Twilight 5:28 AM EDT 9:13 PM EDT
Astronomical Twilight 4:54 AM EDT 9:48 PM EDT
Moon 5:32 AM EDT (5/8) 7:12 PM EDT (5/8)
Length of Visible Light 14h 39m
Length of Day
13h 45m
Waning Crescent, 2% of the Moon is Illuminated
May 8
Waning Crescent
May 9
New
May 18
First Quarter
May 25
Full
May 31
Last Quarter

Hourly Weather History & Observations

Time (EDT) Temp. Heat Index Dew Point Humidity Pressure Visibility Wind Dir Wind Speed Gust Speed Precip Events Conditions
12:56 AM 59.0 °F - 51.1 °F 75% 29.95 in 10.0 mi SW 4.6 mph - N/A   Mostly Cloudy
1:56 AM 57.0 °F - 51.1 °F 81% 29.94 in 10.0 mi Calm Calm - N/A   Partly Cloudy
2:56 AM 55.9 °F - 48.9 °F 77% 29.93 in 10.0 mi Calm Calm - N/A   Partly Cloudy
3:56 AM 54.0 °F - 50.0 °F 86% 29.94 in 10.0 mi Calm Calm - N/A   Partly Cloudy
4:56 AM 54.0 °F - 48.9 °F 83% 29.94 in 10.0 mi Calm Calm - N/A   Overcast
5:56 AM 52.0 °F - 48.9 °F 89% 29.95 in 10.0 mi Calm Calm - N/A   Clear
6:56 AM 52.0 °F - 48.0 °F 86% 29.97 in 10.0 mi Calm Calm - N/A   Partly Cloudy
7:56 AM 55.9 °F - 51.1 °F 84% 29.99 in 10.0 mi WSW 5.8 mph - N/A   Clear
8:56 AM 61.0 °F - 53.1 °F 75% 30.01 in 10.0 mi West 4.6 mph - N/A   Partly Cloudy
9:56 AM 66.0 °F - 54.0 °F 65% 30.01 in 10.0 mi West 3.5 mph - N/A   Partly Cloudy
10:56 AM 71.1 °F - 55.0 °F 57% 30.02 in 10.0 mi Calm Calm - N/A   Partly Cloudy
11:56 AM 75.0 °F - 55.0 °F 50% 30.01 in 10.0 mi West 5.8 mph - N/A   Partly Cloudy
12:56 PM 75.9 °F - 52.0 °F 43% 29.99 in 10.0 mi SW 6.9 mph 17.3 mph N/A   Scattered Clouds
1:56 PM 80.1 °F - 52.0 °F 38% 29.98 in 10.0 mi West 19.6 mph 23.0 mph N/A   Scattered Clouds
2:56 PM 81.0 °F 80.5 °F 54.0 °F 39% 29.97 in 10.0 mi West 10.4 mph - N/A   Scattered Clouds
3:56 PM 79.0 °F - 51.1 °F 38% 29.96 in 10.0 mi WSW 11.5 mph - N/A   Mostly Cloudy
4:56 PM 79.0 °F - 51.1 °F 38% 29.95 in 10.0 mi WSW 9.2 mph - N/A   Mostly Cloudy
5:56 PM 80.1 °F - 50.0 °F 35% 29.95 in 10.0 mi West 12.7 mph - N/A   Scattered Clouds
6:56 PM 79.0 °F - 51.1 °F 38% 29.95 in 10.0 mi West 5.8 mph - N/A   Scattered Clouds
7:56 PM 75.9 °F - 52.0 °F 43% 29.96 in 10.0 mi SW 5.8 mph - N/A   Mostly Cloudy
8:56 PM 72.0 °F - 52.0 °F 49% 29.99 in 10.0 mi WSW 4.6 mph - N/A   Scattered Clouds
9:56 PM 68.0 °F - 55.0 °F 63% 30.01 in 10.0 mi Calm Calm - N/A   Partly Cloudy
10:56 PM 66.0 °F - 55.9 °F 70% 30.02 in 10.0 mi Calm Calm - N/A   Mostly Cloudy
11:56 PM 64.9 °F - 55.9 °F 73% 30.02 in 10.0 mi Calm Calm - N/A   Mostly Cloudy